Lid_Strength_Index
11 12 12 12 12 12 12 11 10 10 10 9 9 9 8 8 8 7 7 7 5 4
12 12 13 12 12 12 12 11 11 10 10 9 9 9 8 8 8 7 6 6 6 5
12 12 13 13 13 12 12 12 11 11 10 10 9 9 9 8 9 9 8 6 5 5
12 13 13 13 13 13 13 13 12 11 11 11 10 9 9 8 9 10 9 8 7 5
12 13 13 14 14 13 13 13 12 12 12 11 10 9 9 10 10 10 10 9 7 7
14 14 15 14 14 13 13 13 12 12 12 12 11 11 9 9 9 9 8 8 7 7
15 15 15 15 14 14 13 13 12 12 12 12 12 11 10 10 9 9 9 8 8 8
15 14 15 15 15 14 13 13 12 13 12 12 12 11 10 10 10 9 9 9 9 9
15 15 15 15 15 14 14 13 13 13 13 12 12 10 9 9 10 10 10 10 10 10
15 15 15 15 15 15 14 14 14 14 13 12 12 9 10 10 11 11 10 10 10 11
15 15 15 15 15 14 14 14 14 13 13 13 12 10 10 11 12 13 13 12 12 12
16 16 15 16 15 14 14 14 14 14 13 13 12 11 11 12 13 13 14 13 13 13
16 17 17 15 14 14 14 14 14 15 14 13 13 12 12 13 14 15 14 13 13 13
16 16 15 15 14 14 14 15 15 15 15 15 14 13 12 13 14 15 15 15 15 14